| time (UTC) | temp C | wind direction | speed KPH | gust KPH | rain 1hr cm | rain 24hr cm | rain mn cm | humidity % | barometer mb |
| 20260502130249 | 10 | 229 | 12.9 | 14.5 | 0.00 | 0.00 | 0.00 | 92 | 1014.5 |
| 20260502123735 | 10 | 250 | 8.0 | 12.9 | 0.00 | 0.00 | 0.00 | 92 | 1014.7 |
| 20260502123232 | 10 | 228 | 8.0 | 11.3 | 0.00 | 0.00 | 0.00 | 92 | 1014.5 |
| 20260502122728 | 10 | 212 | 8.0 | 12.9 | 0.00 | 0.00 | 0.00 | 91 | 1014.5 |
| 20260502122224 | 10 | 229 | 8.0 | 11.3 | 0.00 | 0.00 | 0.00 | 91 | 1014.4 |
| 20260502121723 | 10 | 230 | 11.3 | 14.5 | 0.00 | 0.00 | 0.00 | 91 | 1014.2 |
| 20260502121220 | 10 | 225 | 9.7 | 14.5 | 0.00 | 0.00 | 0.00 | 91 | 1014.3 |
| 20260502120716 | 10 | 217 | 9.7 | 14.5 | 0.00 | 0.00 | 0.00 | 91 | 1014.4 |
| 20260502120213 | 10 | 220 | 9.7 | 12.9 | 0.00 | 0.00 | 0.00 | 91 | 1014.4 |
| 20260502115711 | 10 | 235 | 8.0 | 14.5 | 0.00 | 0.00 | 0.00 | 91 | 1014.4 |
| 20260502115208 | 10 | 227 | 8.0 | 12.9 | 0.00 | 0.00 | 0.00 | 90 | 1014.3 |
| 20260502114704 | 10 | 234 | 8.0 | 11.3 | 0.00 | 0.00 | 0.00 | 91 | 1014.3 |
| 20260502114201 | 10 | 224 | 6.4 | 8.0 | 0.00 | 0.00 | 0.00 | 91 | 1014.1 |
| 20260502113658 | 10 | 175 | 8.0 | 8.0 | 0.00 | 0.00 | 0.00 | 91 | 1013.8 |
| 20260502113156 | 10 | 215 | 6.4 | 12.9 | 0.00 | 0.00 | 0.00 | 91 | 1014.2 |
| 20260502112654 | 10 | 222 | 8.0 | 14.5 | 0.00 | 0.00 | 0.00 | 91 | 1013.9 |
| 20260502112151 | 10 | 212 | 8.0 | 14.5 | 0.00 | 0.00 | 0.00 | 91 | 1014.3 |
| 20260502111648 | 10 | 198 | 3.2 | 14.5 | 0.00 | 0.00 | 0.00 | 91 | 1014.1 |
| 20260502111146 | 10 | 222 | 11.3 | 11.3 | 0.00 | 0.00 | 0.00 | 91 | 1014.3 |
| 20260502110643 | 10 | 227 | 8.0 | 16.1 | 0.00 | 0.00 | 0.00 | 91 | 1014.4 |
| 20260502110140 | 10 | 241 | 9.7 | 17.7 | 0.00 | 0.00 | 0.00 | 91 | 1014.3 |
| 20260502105638 | 10 | 226 | 11.3 | 16.1 | 0.00 | 0.00 | 0.00 | 91 | 1014.2 |
| 20260502105135 | 10 | 250 | 11.3 | 20.9 | 0.00 | 0.00 | 0.00 | 91 | 1014.5 |
| 20260502104632 | 10 | 229 | 14.5 | 24.1 | 0.00 | 0.00 | 0.00 | 91 | 1014.4 |
| 20260502104129 | 10 | 237 | 9.7 | 17.7 | 0.00 | 0.00 | 0.00 | 91 | 1014.4 |
| 20260502103627 | 10 | 234 | 16.1 | 20.9 | 0.00 | 0.00 | 0.00 | 91 | 1014.1 |
| 20260502103125 | 10 | 231 | 11.3 | 19.3 | 0.00 | 0.00 | 0.00 | 90 | 1014.2 |
| 20260502102621 | 10 | 235 | 17.7 | 20.9 | 0.00 | 0.00 | 0.00 | 90 | 1014.0 |
| 20260502102112 | 10 | 225 | 8.0 | 17.7 | 0.00 | 0.00 | 0.00 | 90 | 1013.8 |
| 20260502101610 | 10 | 222 | 24.1 | 25.7 | 0.00 | 0.00 | 0.00 | 90 | 1013.9 |
| 20260502101108 | 10 | 225 | 14.5 | 17.7 | 0.00 | 0.00 | 0.00 | 90 | 1013.7 |
| 20260502100607 | 10 | 222 | 9.7 | 22.5 | 0.00 | 0.00 | 0.00 | 90 | 1014.0 |
| 20260502100105 | 10 | 220 | 6.4 | 19.3 | 0.00 | 0.00 | 0.00 | 90 | 1013.9 |
| 20260502091038 | 10 | 220 | 22.5 | 22.5 | 0.00 | 0.00 | 0.00 | 89 | 1013.9 |
| 20260502090535 | 10 | 225 | 17.7 | 22.5 | 0.00 | 0.00 | 0.00 | 89 | 1014.1 |
| 20260502071430 | 10 | 235 | 17.7 | 29.0 | 0.00 | 0.00 | 0.00 | 86 | 1014.2 |
| 20260502070928 | 10 | 224 | 25.7 | 29.0 | 0.00 | 0.00 | 0.00 | 86 | 1014.3 |
| 20260502070426 | 10 | 225 | 20.9 | 35.4 | 0.00 | 0.00 | 0.00 | 86 | 1014.2 |
| 20260502065924 | 10 | 223 | 19.3 | 27.4 | 0.00 | 0.00 | 0.00 | 86 | 1014.0 |
| 20260502065422 | 10 | 243 | 14.5 | 24.1 | 0.00 | 0.00 | 0.00 | 86 | 1014.2 |
| 20260502064920 | 10 | 230 | 20.9 | 33.8 | 0.00 | 0.00 | 0.00 | 86 | 1014.2 |
| 20260502064417 | 10 | 224 | 14.5 | 24.1 | 0.00 | 0.00 | 0.00 | 86 | 1014.4 |
| 20260502063914 | 10 | 236 | 24.1 | 25.7 | 0.00 | 0.00 | 0.00 | 86 | 1014.5 |
| 20260502063412 | 10 | 225 | 12.9 | 16.1 | 0.00 | 0.00 | 0.00 | 87 | 1014.4 |
| 20260502062910 | 10 | 236 | 14.5 | 16.1 | 0.00 | 0.00 | 0.00 | 87 | 1014.6 |
| 20260502062407 | 10 | 231 | 16.1 | 17.7 | 0.00 | 0.00 | 0.00 | 87 | 1014.6 |
| 20260502061906 | 10 | 232 | 14.5 | 24.1 | 0.00 | 0.00 | 0.00 | 87 | 1014.9 |
| 20260502061403 | 10 | 249 | 8.0 | 16.1 | 0.00 | 0.00 | 0.00 | 88 | 1014.8 |
| 20260502060859 | 10 | 225 | 9.7 | 19.3 | 0.00 | 0.00 | 0.00 | 88 | 1015.0 |
| 20260502060358 | 10 | 248 | 8.0 | 17.7 | 0.00 | 0.00 | 0.00 | 88 | 1014.8 |
| 20260502055856 | 10 | 234 | 16.1 | 22.5 | 0.00 | 0.00 | 0.00 | 87 | 1014.5 |
| 20260502055354 | 10 | 213 | 12.9 | 17.7 | 0.00 | 0.00 | 0.00 | 88 | 1014.5 |
| 20260502054854 | 10 | 205 | 11.3 | 19.3 | 0.00 | 0.00 | 0.00 | 87 | 1014.4 |
| 20260502054350 | 10 | 213 | 8.0 | 16.1 | 0.00 | 0.00 | 0.00 | 87 | 1014.3 |
| 20260502053848 | 10 | 202 | 12.9 | 20.9 | 0.00 | 0.00 | 0.00 | 87 | 1014.6 |
| 20260502053345 | 10 | 212 | 14.5 | 19.3 | 0.00 | 0.00 | 0.00 | 87 | 1014.4 |
| 20260502052843 | 10 | 195 | 8.0 | 24.1 | 0.00 | 0.00 | 0.00 | 87 | 1014.4 |
| 20260502052341 | 10 | 207 | 9.7 | 19.3 | 0.00 | 0.00 | 0.00 | 87 | 1014.3 |
| 20260502051838 | 10 | 220 | 9.7 | 17.7 | 0.00 | 0.00 | 0.00 | 87 | 1014.4 |
| 20260502051337 | 10 | 198 | 11.3 | 20.9 | 0.00 | 0.00 | 0.00 | 87 | 1014.5 |
| 20260502050833 | 10 | 213 | 8.0 | 17.7 | 0.00 | 0.00 | 0.00 | 86 | 1014.4 |
| 20260502050329 | 10 | 213 | 14.5 | 20.9 | 0.00 | 0.00 | 0.00 | 86 | 1014.6 |
| 20260502045826 | 10 | 207 | 19.3 | 24.1 | 0.00 | 0.00 | 0.00 | 85 | 1014.7 |
| 20260502045323 | 10 | 219 | 17.7 | 24.1 | 0.00 | 0.00 | 0.00 | 85 | 1014.6 |
| 20260502044821 | 10 | 217 | 11.3 | 24.1 | 0.00 | 0.00 | 0.00 | 85 | 1014.6 |
| 20260502044316 | 10 | 206 | 12.9 | 25.7 | 0.00 | 0.00 | 0.00 | 85 | 1014.6 |
| 20260502043813 | 10 | 199 | 12.9 | 25.7 | 0.00 | 0.00 | 0.00 | 85 | 1014.4 |
| 20260502043311 | 10 | 211 | 16.1 | 24.1 | 0.00 | 0.00 | 0.00 | 85 | 1014.4 |
| 20260502042810 | 10 | 208 | 11.3 | 22.5 | 0.00 | 0.00 | 0.00 | 85 | 1014.6 |
| 20260502042308 | 10 | 215 | 11.3 | 25.7 | 0.00 | 0.00 | 0.00 | 86 | 1014.8 |
| 20260502041805 | 10 | 202 | 17.7 | 25.7 | 0.00 | 0.00 | 0.00 | 87 | 1014.6 |
| 20260502041302 | 10 | 215 | 14.5 | 27.4 | 0.00 | 0.00 | 0.00 | 88 | 1014.7 |
| 20260502040800 | 10 | 222 | 19.3 | 27.4 | 0.00 | 0.00 | 0.00 | 89 | 1014.4 |
| 20260502040256 | 10 | 218 | 14.5 | 22.5 | 0.00 | 0.00 | 0.00 | 89 | 1014.6 |
| 20260502035752 | 10 | 196 | 14.5 | 24.1 | 0.00 | 0.00 | 0.00 | 88 | 1014.5 |
| 20260502035249 | 10 | 194 | 12.9 | 20.9 | 0.00 | 0.00 | 0.00 | 88 | 1014.9 |
| 20260502034746 | 10 | 221 | 14.5 | 27.4 | 0.00 | 0.00 | 0.00 | 87 | 1014.5 |
| 20260502034245 | 10 | 217 | 17.7 | 27.4 | 0.00 | 0.00 | 0.00 | 87 | 1014.6 |
| 20260502033742 | 10 | 210 | 20.9 | 29.0 | 0.00 | 0.00 | 0.00 | 87 | 1014.5 |
| 20260502033240 | 10 | 211 | 11.3 | 30.6 | 0.00 | 0.00 | 0.00 | 87 | 1014.6 |
| 20260502032736 | 10 | 212 | 20.9 | 29.0 | 0.00 | 0.00 | 0.00 | 86 | 1014.5 |
| 20260502032232 | 10 | 210 | 11.3 | 30.6 | 0.00 | 0.00 | 0.00 | 86 | 1014.5 |
| 20260502031731 | 10 | 208 | 12.9 | 29.0 | 0.00 | 0.00 | 0.00 | 86 | 1014.8 |
| 20260502031228 | 10 | 206 | 19.3 | 33.8 | 0.00 | 0.00 | 0.00 | 86 | 1014.7 |
| 20260502030727 | 10 | 205 | 16.1 | 33.8 | 0.00 | 0.00 | 0.00 | 86 | 1014.7 |
| 20260502030224 | 10 | 222 | 29.0 | 30.6 | 0.00 | 0.00 | 0.00 | 86 | 1014.7 |
| 20260502025721 | 10 | 218 | 20.9 | 27.4 | 0.00 | 0.00 | 0.00 | 86 | 1014.9 |
| 20260502025219 | 10 | 194 | 11.3 | 29.0 | 0.00 | 0.00 | 0.00 | 85 | 1015.0 |
| 20260502024717 | 10 | 203 | 16.1 | 30.6 | 0.00 | 0.00 | 0.00 | 85 | 1014.6 |
| 20260502024215 | 10 | 205 | 24.1 | 32.2 | 0.00 | 0.00 | 0.00 | 85 | 1014.9 |
| 20260502023713 | 10 | 210 | 12.9 | 24.1 | 0.00 | 0.00 | 0.00 | 84 | 1014.6 |
| 20260502023210 | 10 | 202 | 22.5 | 33.8 | 0.00 | 0.00 | 0.00 | 83 | 1014.8 |
| 20260502022707 | 10 | 222 | 16.1 | 30.6 | 0.00 | 0.00 | 0.00 | 83 | 1014.8 |
| 20260502022203 | 10 | 217 | 24.1 | 37.0 | 0.00 | 0.00 | 0.00 | 82 | 1014.8 |
| 20260502021701 | 10 | 206 | 17.7 | 32.2 | 0.00 | 0.00 | 0.00 | 82 | 1014.5 |
| 20260502021158 | 10 | 207 | 32.2 | 32.2 | 0.00 | 0.00 | 0.00 | 81 | 1014.8 |
| 20260502020655 | 10 | 200 | 30.6 | 35.4 | 0.00 | 0.00 | 0.00 | 81 | 1014.6 |
| 20260502020152 | 10 | 212 | 27.4 | 37.0 | 0.00 | 0.00 | 0.00 | 82 | 1014.6 |
| 20260502015650 | 10 | 214 | 24.1 | 35.4 | 0.00 | 0.00 | 0.00 | 82 | 1014.9 |
| 20260502015146 | 10 | 214 | 27.4 | 35.4 | 0.00 | 0.00 | 0.00 | 82 | 1014.8 |
| 20260502014644 | 10 | 198 | 19.3 | 35.4 | 0.00 | 0.00 | 0.00 | 82 | 1014.5 |
| 20260502014140 | 10 | 224 | 25.7 | 27.4 | 0.00 | 0.00 | 0.00 | 82 | 1014.7 |
| 20260502013636 | 10 | 228 | 8.0 | 32.2 | 0.00 | 0.00 | 0.00 | 83 | 1014.3 |
| 20260502013132 | 10 | 210 | 22.5 | 33.8 | 0.00 | 0.00 | 0.00 | 83 | 1014.7 |
| 20260502012629 | 10 | 204 | 12.9 | 24.1 | 0.00 | 0.00 | 0.00 | 82 | 1014.6 |
| 20260502012128 | 10 | 209 | 11.3 | 29.0 | 0.00 | 0.00 | 0.00 | 82 | 1014.4 |
| 20260502011624 | 10 | 204 | 11.3 | 25.7 | 0.00 | 0.00 | 0.00 | 82 | 1014.4 |
| 20260502011120 | 10 | 207 | 17.7 | 29.0 | 0.00 | 0.00 | 0.00 | 81 | 1014.5 |
| 20260502010618 | 10 | 202 | 20.9 | 24.1 | 0.00 | 0.00 | 0.00 | 80 | 1014.3 |
| 20260502010114 | 10 | 208 | 17.7 | 24.1 | 0.00 | 0.00 | 0.00 | 79 | 1014.4 |
| 20260502005612 | 10 | 221 | 11.3 | 27.4 | 0.00 | 0.00 | 0.00 | 79 | 1014.3 |
| 20260502005109 | 10 | 204 | 11.3 | 20.9 | 0.00 | 0.00 | 0.00 | 79 | 1014.4 |
| 20260502004604 | 10 | 214 | 16.1 | 22.5 | 0.00 | 0.00 | 0.00 | 79 | 1014.3 |
| 20260502004101 | 10 | 201 | 11.3 | 22.5 | 0.00 | 0.00 | 0.00 | 78 | 1014.2 |
| 20260502003600 | 10 | 176 | 4.8 | 27.4 | 0.00 | 0.00 | 0.00 | 77 | 1014.3 |
| 20260502003056 | 10 | 195 | 14.5 | 22.5 | 0.00 | 0.00 | 0.00 | 76 | 1014.2 |
| 20260502002552 | 10 | 197 | 22.5 | 22.5 | 0.00 | 0.00 | 0.00 | 76 | 1014.0 |
| 20260502002050 | 10 | 211 | 20.9 | 24.1 | 0.00 | 0.00 | 0.00 | 78 | 1014.0 |
| 20260502001548 | 10 | 194 | 19.3 | 27.4 | 0.00 | 0.00 | 0.00 | 80 | 1014.0 |
| 20260502001044 | 10 | 192 | 14.5 | 20.9 | 0.00 | 0.00 | 0.00 | 82 | 1014.0 |
| 20260502000543 | 10 | 205 | 12.9 | 24.1 | 0.00 | 0.00 | 0.00 | 83 | 1014.1 |
| 20260502000040 | 10 | 203 | 17.7 | 22.5 | 0.00 | 0.00 | 0.00 | 84 | 1014.0 |
| 20260501235535 | 10 | 198 | 14.5 | 25.7 | 0.00 | 0.00 | 0.00 | 83 | 1013.8 |
| 20260501235031 | 10 | 207 | 20.9 | 20.9 | 0.00 | 0.00 | 0.00 | 85 | 1014.0 |
| 20260501234528 | 10 | 192 | 11.3 | 24.1 | 0.00 | 0.00 | 0.00 | 85 | 1014.0 |
| 20260501234026 | 10 | 200 | 8.0 | 24.1 | 0.00 | 0.00 | 0.00 | 85 | 1013.8 |
| 20260501233523 | 10 | 214 | 17.7 | 25.7 | 0.00 | 0.00 | 0.00 | 84 | 1013.8 |
| 20260501233020 | 10 | 191 | 17.7 | 24.1 | 0.00 | 0.00 | 0.00 | 84 | 1013.6 |
| 20260501232516 | 10 | 204 | 19.3 | 29.0 | 0.00 | 0.00 | 0.00 | 83 | 1013.7 |
| 20260501232013 | 10 | 199 | 16.1 | 22.5 | 0.00 | 0.00 | 0.00 | 82 | 1013.5 |
| 20260501231511 | 10 | 206 | 14.5 | 32.2 | 0.00 | 0.00 | 0.00 | 82 | 1013.6 |
| 20260501231009 | 10 | 196 | 16.1 | 25.7 | 0.00 | 0.00 | 0.00 | 81 | 1013.7 |
| 20260501230508 | 10 | 183 | 14.5 | 27.4 | 0.00 | 0.00 | 0.00 | 80 | 1013.6 |
| 20260501230005 | 10 | 193 | 17.7 | 20.9 | 0.00 | 0.00 | 0.00 | 80 | 1013.6 |
| 20260501225503 | 11 | 198 | 20.9 | 25.7 | 0.00 | 0.00 | 0.00 | 79 | 1013.5 |
| 20260501224958 | 11 | 203 | 12.9 | 27.4 | 0.00 | 0.00 | 0.00 | 79 | 1013.7 |
| 20260501224456 | 11 | 213 | 19.3 | 24.1 | 0.00 | 0.00 | 0.00 | 79 | 1013.7 |
| 20260501223953 | 11 | 216 | 12.9 | 27.4 | 0.00 | 0.00 | 0.00 | 78 | 1013.6 |
| 20260501223449 | 11 | 210 | 17.7 | 30.6 | 0.00 | 0.00 | 0.00 | 78 | 1013.8 |
| 20260501222944 | 11 | 207 | 8.0 | 29.0 | 0.00 | 0.00 | 0.00 | 77 | 1013.5 |
| 20260501222442 | 11 | 217 | 14.5 | 27.4 | 0.00 | 0.00 | 0.00 | 77 | 1013.5 |
| 20260501221938 | 11 | 220 | 14.5 | 24.1 | 0.00 | 0.00 | 0.00 | 76 | 1013.8 |
| 20260501221435 | 11 | 208 | 16.1 | 33.8 | 0.00 | 0.00 | 0.00 | 75 | 1013.7 |
| 20260501220933 | 11 | 202 | 14.5 | 37.0 | 0.00 | 0.00 | 0.00 | 74 | 1013.6 |
| 20260501220431 | 11 | 199 | 14.5 | 29.0 | 0.00 | 0.00 | 0.00 | 74 | 1013.6 |
| 20260501215926 | 11 | 221 | 22.5 | 32.2 | 0.00 | 0.00 | 0.00 | 73 | 1013.8 |
| 20260501215424 | 11 | 203 | 16.1 | 35.4 | 0.00 | 0.00 | 0.00 | 73 | 1013.5 |
| 20260501214919 | 11 | 218 | 20.9 | 32.2 | 0.00 | 0.00 | 0.00 | 72 | 1013.5 |
| 20260501214414 | 11 | 204 | 14.5 | 40.2 | 0.00 | 0.00 | 0.00 | 73 | 1013.6 |
| 20260501213910 | 11 | 208 | 17.7 | 33.8 | 0.00 | 0.00 | 0.00 | 71 | 1013.7 |
| 20260501213407 | 11 | 204 | 29.0 | 30.6 | 0.00 | 0.00 | 0.00 | 70 | 1013.7 |
| 20260501212902 | 11 | 209 | 22.5 | 27.4 | 0.00 | 0.00 | 0.00 | 71 | 1013.4 |
| 20260501212400 | 12 | 197 | 14.5 | 29.0 | 0.00 | 0.00 | 0.00 | 69 | 1013.7 |
| 20260501211857 | 12 | 220 | 19.3 | 32.2 | 0.00 | 0.00 | 0.00 | 68 | 1013.7 |
| 20260501211354 | 11 | 203 | 12.9 | 30.6 | 0.00 | 0.00 | 0.00 | 69 | 1013.6 |
| 20260501210851 | 12 | 203 | 20.9 | 30.6 | 0.00 | 0.00 | 0.00 | 67 | 1013.5 |
| 20260501210348 | 12 | 221 | 30.6 | 40.2 | 0.00 | 0.00 | 0.00 | 66 | 1013.4 |
| 20260501205844 | 12 | 217 | 27.4 | 32.2 | 0.00 | 0.00 | 0.00 | 67 | 1013.6 |
| 20260501205341 | 12 | 213 | 20.9 | 27.4 | 0.00 | 0.00 | 0.00 | 68 | 1013.4 |
| 20260501204838 | 12 | 218 | 22.5 | 30.6 | 0.00 | 0.00 | 0.00 | 69 | 1013.3 |
| 20260501204335 | 12 | 214 | 19.3 | 27.4 | 0.00 | 0.00 | 0.00 | 68 | 1013.3 |
| 20260501203831 | 12 | 208 | 22.5 | 35.4 | 0.00 | 0.00 | 0.00 | 66 | 1013.4 |
| 20260501203329 | 12 | 211 | 30.6 | 30.6 | 0.00 | 0.00 | 0.00 | 66 | 1013.3 |
| 20260501202826 | 12 | 213 | 16.1 | 35.4 | 0.00 | 0.00 | 0.00 | 69 | 1013.3 |
| 20260501202323 | 12 | 196 | 9.7 | 27.4 | 0.00 | 0.00 | 0.00 | 72 | 1013.3 |
| 20260501201820 | 12 | 203 | 12.9 | 29.0 | 0.00 | 0.00 | 0.00 | 71 | 1013.1 |
| 20260501201316 | 12 | 209 | 22.5 | 25.7 | 0.00 | 0.00 | 0.00 | 69 | 1013.3 |
| 20260501200812 | 12 | 189 | 22.5 | 30.6 | 0.00 | 0.00 | 0.00 | 69 | 1013.3 |
| 20260501200309 | 13 | 211 | 11.3 | 20.9 | 0.00 | 0.00 | 0.00 | 69 | 1013.3 |
| 20260501195808 | 12 | 205 | 22.5 | 29.0 | 0.00 | 0.00 | 0.00 | 71 | 1013.4 |
| 20260501195305 | 12 | 216 | 19.3 | 24.1 | 0.00 | 0.00 | 0.00 | 71 | 1013.6 |
| 20260501194759 | 13 | 203 | 14.5 | 22.5 | 0.00 | 0.00 | 0.00 | 71 | 1013.5 |
| 20260501194255 | 14 | 180 | 12.9 | 24.1 | 0.00 | 0.00 | 0.00 | 67 | 1013.4 |
| 20260501193751 | 13 | 240 | 14.5 | 24.1 | 0.00 | 0.00 | 0.00 | 63 | 1013.4 |
| 20260501193250 | 14 | 213 | 11.3 | 17.7 | 0.00 | 0.00 | 0.00 | 63 | 1013.3 |
| 20260501192747 | 13 | 229 | 19.3 | 25.7 | 0.00 | 0.00 | 0.00 | 62 | 1013.5 |
| 20260501192243 | 13 | 223 | 16.1 | 27.4 | 0.00 | 0.00 | 0.00 | 62 | 1013.5 |
| 20260501191741 | 13 | 224 | 11.3 | 27.4 | 0.00 | 0.00 | 0.00 | 63 | 1013.6 |
| 20260501191238 | 13 | 221 | 16.1 | 25.7 | 0.00 | 0.00 | 0.00 | 60 | 1013.7 |
| 20260501190735 | 14 | 217 | 16.1 | 20.9 | 0.00 | 0.00 | 0.00 | 62 | 1013.9 |
| 20260501190230 | 13 | 183 | 6.4 | 22.5 | 0.00 | 0.00 | 0.00 | 64 | 1013.8 |
| 20260501185726 | 14 | 206 | 12.9 | 20.9 | 0.00 | 0.00 | 0.00 | 62 | 1014.0 |
| 20260501185222 | 13 | 224 | 12.9 | 24.1 | 0.00 | 0.00 | 0.00 | 65 | 1014.0 |
| 20260501184719 | 14 | 218 | 14.5 | 22.5 | 0.00 | 0.00 | 0.00 | 61 | 1013.9 |
| 20260501184214 | 13 | 221 | 16.1 | 32.2 | 0.00 | 0.00 | 0.00 | 62 | 1013.8 |
| 20260501183710 | 13 | 202 | 17.7 | 25.7 | 0.00 | 0.00 | 0.00 | 62 | 1014.0 |
| 20260501183208 | 13 | 212 | 22.5 | 29.0 | 0.00 | 0.00 | 0.00 | 61 | 1014.1 |
| 20260501182704 | 13 | 227 | 16.1 | 30.6 | 0.00 | 0.00 | 0.00 | 65 | 1014.1 |
| 20260501182200 | 13 | 213 | 17.7 | 27.4 | 0.00 | 0.00 | 0.00 | 65 | 1014.1 |
| 20260501181657 | 13 | 212 | 14.5 | 27.4 | 0.00 | 0.00 | 0.00 | 63 | 1014.0 |
| 20260501181155 | 12 | 229 | 22.5 | 33.8 | 0.00 | 0.00 | 0.00 | 65 | 1014.1 |
| 20260501180653 | 13 | 225 | 24.1 | 33.8 | 0.00 | 0.00 | 0.00 | 62 | 1014.0 |
| 20260501180148 | 12 | 229 | 17.7 | 32.2 | 0.00 | 0.00 | 0.00 | 65 | 1014.1 |
| 20260501175645 | 13 | 204 | 16.1 | 22.5 | 0.00 | 0.00 | 0.00 | 65 | 1014.1 |
| 20260501175143 | 13 | 223 | 22.5 | 32.2 | 0.00 | 0.00 | 0.00 | 65 | 1014.1 |
| 20260501174639 | 12 | 232 | 25.7 | 30.6 | 0.00 | 0.00 | 0.00 | 66 | 1014.2 |
| 20260501174137 | 13 | 217 | 22.5 | 30.6 | 0.00 | 0.00 | 0.00 | 66 | 1014.1 |
| 20260501173634 | 13 | 216 | 19.3 | 24.1 | 0.00 | 0.00 | 0.00 | 67 | 1014.1 |
| 20260501173131 | 12 | 222 | 24.1 | 27.4 | 0.00 | 0.00 | 0.00 | 66 | 1014.4 |
| 20260501172626 | 12 | 215 | 19.3 | 27.4 | 0.00 | 0.00 | 0.00 | 67 | 1014.3 |
| 20260501172121 | 12 | 214 | 4.8 | 24.1 | 0.00 | 0.00 | 0.00 | 68 | 1014.3 |
| 20260501171618 | 12 | 209 | 16.1 | 25.7 | 0.00 | 0.00 | 0.00 | 66 | 1014.5 |
| 20260501171115 | 12 | 222 | 19.3 | 32.2 | 0.00 | 0.00 | 0.00 | 64 | 1014.5 |
| 20260501170612 | 12 | 222 | 11.3 | 24.1 | 0.00 | 0.00 | 0.00 | 62 | 1014.5 |
| 20260501170109 | 12 | 187 | 8.0 | 17.7 | 0.00 | 0.00 | 0.00 | 67 | 1014.5 |
| 20260501165606 | 12 | 217 | 14.5 | 20.9 | 0.00 | 0.00 | 0.00 | 64 | 1014.5 |
| 20260501165104 | 12 | 203 | 12.9 | 20.9 | 0.00 | 0.00 | 0.00 | 66 | 1014.7 |
| 20260501164601 | 12 | 190 | 9.7 | 22.5 | 0.00 | 0.00 | 0.00 | 63 | 1014.6 |
| 20260501164058 | 12 | 217 | 8.0 | 20.9 | 0.00 | 0.00 | 0.00 | 65 | 1014.5 |
| 20260501163555 | 12 | 183 | 12.9 | 20.9 | 0.00 | 0.00 | 0.00 | 63 | 1014.6 |
| 20260501163052 | 13 | 195 | 9.7 | 20.9 | 0.00 | 0.00 | 0.00 | 60 | 1014.8 |
| 20260501162548 | 12 | 170 | 9.7 | 19.3 | 0.00 | 0.00 | 0.00 | 60 | 1014.7 |
| 20260501162045 | 11 | 211 | 14.5 | 24.1 | 0.00 | 0.00 | 0.00 | 64 | 1014.8 |
| 20260501161542 | 12 | 202 | 12.9 | 22.5 | 0.00 | 0.00 | 0.00 | 61 | 1015.0 |
| 20260501161038 | 12 | 200 | 14.5 | 22.5 | 0.00 | 0.00 | 0.00 | 59 | 1015.1 |
| 20260501160536 | 12 | 210 | 14.5 | 16.1 | 0.00 | 0.00 | 0.00 | 60 | 1015.0 |
| 20260501160033 | 12 | 209 | 12.9 | 20.9 | 0.00 | 0.00 | 0.00 | 62 | 1015.0 |
| 20260501155529 | 12 | 220 | 19.3 | 25.7 | 0.00 | 0.00 | 0.00 | 61 | 1015.2 |
| 20260501155026 | 13 | 192 | 11.3 | 14.5 | 0.00 | 0.00 | 0.00 | 60 | 1015.1 |
| 20260501154524 | 12 | 216 | 11.3 | 17.7 | 0.00 | 0.00 | 0.00 | 55 | 1015.2 |
| 20260501154020 | 12 | 222 | 16.1 | 24.1 | 0.00 | 0.00 | 0.00 | 54 | 1015.1 |
| 20260501153518 | 12 | 254 | 8.0 | 12.9 | 0.00 | 0.00 | 0.00 | 54 | 1015.2 |
| 20260501153014 | 12 | 269 | 9.7 | 11.3 | 0.00 | 0.00 | 0.00 | 52 | 1015.1 |
| 20260501152511 | 12 | 275 | 11.3 | 16.1 | 0.00 | 0.00 | 0.00 | 51 | 1015.3 |
| 20260501152009 | 12 | 273 | 4.8 | 16.1 | 0.00 | 0.00 | 0.00 | 49 | 1015.1 |
| 20260501151505 | 12 | 289 | 9.7 | 9.7 | 0.00 | 0.00 | 0.00 | 50 | 1015.4 |
| 20260501151002 | 12 | 301 | 14.5 | 14.5 | 0.00 | 0.00 | 0.00 | 51 | 1015.2 |
| 20260501150457 | 12 | 313 | 16.1 | 20.9 | 0.00 | 0.00 | 0.00 | 55 | 1015.1 |
| 20260501145954 | 11 | 302 | 11.3 | 16.1 | 0.00 | 0.00 | 0.00 | 51 | 1014.9 |
| 20260501145450 | 12 | 324 | 12.9 | 16.1 | 0.00 | 0.00 | 0.00 | 54 | 1014.9 |
| 20260501144948 | 13 | 313 | 8.0 | 9.7 | 0.00 | 0.00 | 0.00 | 49 | 1015.0 |
| 20260501144443 | 13 | 269 | 0.0 | 6.4 | 0.00 | 0.00 | 0.00 | 49 | 1014.9 |
| 20260501143940 | 13 | 328 | 8.0 | 9.7 | 0.00 | 0.00 | 0.00 | 51 | 1014.8 |
| 20260501143436 | 13 | 6 | 1.6 | 6.4 | 0.00 | 0.00 | 0.00 | 51 | 1015.0 |
| 20260501142932 | 12 | 336 | 9.7 | 9.7 | 0.00 | 0.00 | 0.00 | 54 | 1015.0 |
| 20260501142431 | 11 | 310 | 8.0 | 12.9 | 0.00 | 0.00 | 0.00 | 54 | 1015.0 |
| 20260501141926 | 11 | 283 | 12.9 | 12.9 | 0.00 | 0.00 | 0.00 | 56 | 1015.1 |